Location: Owatonna
(44.0840°N, 93.2260°W)
Time: 18:18:53
(UTC-06:00)

Daily predictions for brighter satellites

Satellite Brightness Start Highest point End
(mag) Time Altitude Azimuth Time Altitude Azimuth Time Altitude Azimuth
ATLAS 2AS CENTAUR R/B 3.5 16:59:13 10° NNW 17:06:53 42° NE 17:14:10 10° ESE
CSL-04 Debris 4.3 17:01:31 10° SSE 17:06:54 83° WSW 17:12:20 10° NNW
SL-8 Rocket 4.5 17:02:53 10° N 17:08:34 37° ENE 17:14:12 10° SE
CSL-04 Rocket 4.2 17:03:59 10° S 17:09:24 69° WSW 17:14:55 10° NNW
Cosmos 1633 2.4 17:09:09 10° N 17:12:46 76° E 17:16:20 10° SSE
Cosmos 1300 Rocket 3.8 17:08:31 10° NNW 17:12:53 75° W 17:17:11 10° S
Meteor 1-27 Rocket 3.8 17:07:11 10° S 17:13:03 86° E 17:18:50 10° N
YAOGAN 1 3.0 17:09:17 10° SE 17:13:20 41° ENE 17:17:25 10° N
Abrixas 3.1 17:13:00 10° W 17:15:50 43° NNW 17:18:36 11° ENE
Cosmos 2218 Rocket 4.5 17:12:37 10° N 17:18:26 37° ENE 17:24:10 10° SE
OTV 4 2.6 17:17:01 10° WSW 17:19:26 22° S 17:21:51 10° SE
Cosmos 2181 Rocket 4.2 17:13:47 10° SSE 17:19:56 57° E 17:26:13 10° NNE
ASTEX 1 4.3 17:16:39 10° N 17:21:31 53° W 17:26:21 10° SSW
Cosmos 1844 Rocket 3.4 17:16:52 10° SSE 17:21:51 35° ESE 17:26:53 10° NE
MOS 1 4.3 17:17:41 10° SSE 17:23:18 68° ENE 17:28:56 10° N
Cosmos 1378 Rocket 3.5 17:20:51 10° S 17:25:09 86° E 17:29:29 10° N
SL-27 R/B 3.5 17:25:00 10° N 17:28:11 27° ENE 17:31:19 10° ESE
GEOS 3 Rocket 3.8 17:27:49 10° ESE 17:32:42 47° NE 17:37:36 10° NNW
Cosmos 1455 Rocket 3.8 17:30:44 10° NNE 17:34:39 30° ENE 17:38:33 10° SE
ISS -2.2 17:33:52 10° SSW 17:36:50 32° SE 17:38:49 17° E
Cosmos 2341 Rocket 4.1 17:32:50 10° N 17:39:05 81° W 17:45:17 10° S
Cosmos 1295 Rocket 4.4 17:33:46 10° N 17:39:56 79° E 17:46:02 10° S
CORIOLIS 4.1 17:36:44 10° SSE 17:42:09 79° ENE 17:47:34 10° NNW
Cosmos 1048 Rocket 4.4 17:37:03 10° NNW 17:42:20 70° WSW 17:47:39 10° S
SJ-7 4.4 17:38:22 10° SSE 17:42:35 80° ENE 17:46:51 10° N
COSMOS 2406 3.2 17:38:26 10° NNW 17:44:11 90° WSW 17:49:56 10° SSE
Cosmos 158 Rocket 4.0 17:39:55 10° NNW 17:45:21 87° ENE 17:50:38 10° SSE
Cosmos 2278 Rocket 3.2 17:42:46 10° SSE 17:47:19 26° ESE 17:50:04 18° ENE
CZ-4 R/B 4.3 17:45:23 10° SSE 17:49:31 75° ENE 17:53:41 10° N
Meteor 1-5 Rocket 4.2 17:49:23 10° NNW 17:54:48 83° W 18:00:19 10° S
Cosmos 1484 Rocket 2.8 17:52:48 10° SSE 17:56:27 48° ENE 18:00:04 10° N
CZ-2C R/B 2.8 17:51:49 10° S 17:56:43 68° WSW 18:01:49 10° NNW
SPOT 3 Rocket 4.0 17:52:44 10° S 17:57:53 64° WSW 18:03:03 10° NNW
MONITOR-E 4.1 17:55:40 10° SSE 17:58:50 68° ENE 18:02:02 10° N
ASTRO F (AKARI) 4.1 17:58:05 14° NNE 18:00:44 79° ESE 18:03:52 10° S
Cosmos 1238 Rocket 2.1 18:00:53 10° S 18:03:47 53° E 18:04:44 34° NE
Cosmos 2082 Rocket 3.1 18:05:46 10° N 18:10:24 25° NE 18:10:50 25° ENE
IDEFIX/ARIANE 42P 3.5 18:07:05 10° S 18:12:08 51° W 18:17:13 10° NNW
COSMOS 2441 4.4 18:09:26 10° SSE 18:14:16 84° WSW 18:19:12 10° NNW
Nadezhda 3 Rocket 4.4 18:10:01 10° SSE 18:15:40 39° E 18:21:20 10° NNE
Okean 1 3.5 18:12:34 10° S 18:16:28 50° E 18:17:54 33° NE
USA 32 4.2 18:11:30 10° S 18:16:43 74° W 18:21:58 10° N
Cosmos 1833 Rocket 3.7 18:13:59 10° N 18:18:13 25° NE 18:18:13 25° NE
Cosmos 864 Rocket 4.5 18:13:14 10° N 18:19:32 87° E 18:25:51 10° S
COSMO-SKYMED 1 2.4 18:16:32 16° NNE 18:20:00 72° E 18:24:19 10° S
Meteor 2-21 4.5 18:16:33 10° N 18:22:38 55° ENE 18:28:38 10° SSE
Cosmos 1544 Rocket 4.0 18:18:16 10° NNW 18:22:42 65° W 18:27:06 10° S
Cosmos 1500 4.4 18:22:35 10° N 18:28:52 19° SSE 18:30:06 10° SSE
SL-24 DEB 4.2 18:22:27 10° N 18:27:15 86° W 18:31:58 10° S
Meteor 1-18 Rocket 4.1 18:21:43 10° S 18:27:20 87° E 18:33:05 10° N
Meteor 1-28 Rocket 3.5 18:29:51 48° SE 18:29:51 48° SE 18:33:05 10° S
USA 234 4.0 18:29:59 21° NE 18:33:57 42° NNW 18:40:01 10° W
CZ-4 R/B 4.4 18:33:33 10° SW 18:36:24 18° W 18:39:16 10° NW
METEOR-M 4.1 18:33:53 10° SSE 18:39:07 60° ENE 18:44:24 10° N
Cosmos 1346 Rocket 3.7 18:36:04 10° S 18:38:33 35° SSE 18:38:33 35° SSE
NOAA 12 3.9 18:36:43 10° SSE 18:41:59 75° ENE 18:47:16 10° N
Cosmos 1536 Rocket 3.8 18:38:55 10° SSW 18:43:21 71° W 18:46:25 20° N
Cosmos 1812 3.5 18:41:22 10° SSW 18:45:07 50° W 18:47:21 22° NNW
Cosmos 494 Rocket 4.3 18:41:12 10° NNW 18:46:23 65° WSW 18:51:35 10° S
Meteor 2-14 Rocket 4.3 18:41:30 10° N 18:47:37 63° E 18:53:41 10° SSE
NOSS 3-3 (A) 3.9 18:44:30 10° SSW 18:50:38 68° ESE 18:52:24 48° ENE
NOSS 3-3 (C) 3.9 18:44:36 10° SSW 18:50:44 67° ESE 18:52:28 48° ENE
Cosmos 2251 Rocket 4.4 18:48:15 10° NNW 18:53:24 49° WSW 18:58:29 10° S
Cosmos 1975 3.6 18:51:09 10° NNW 18:55:08 53° W 18:59:04 10° S
OTV 4 3.4 18:53:57 10° SW 18:55:03 13° SSW 18:55:03 13° SSW
ATLAS 2AS CENTAUR R/B 3.5 18:50:24 10° NW 18:58:20 61° WSW 19:05:43 10° SSE
FALCON 9 R/B 3.8 18:39:46 10° WSW 18:58:55 44° S 19:01:52 32° SE
Meteor 2-21 Rocket 4.3 18:55:51 10° N 19:02:06 89° E 19:08:15 10° S
Cosmos 1844 Rocket 3.9 19:00:30 10° WSW 19:05:40 38° NW 19:09:11 19° N
Meteor 2-16 Rocket 4.2 19:02:27 10° N 19:08:35 83° E 19:14:40 10° S
Timation 2 Rocket 4.0 19:04:47 10° NNW 19:11:37 78° ENE 19:13:13 56° SE
Cosmos 1535 Rocket 4.3 19:06:15 10° N 19:12:37 78° E 19:18:52 10° SSE
Cosmos 2297 4.3 19:07:39 10° S 19:11:32 43° SSE 19:11:32 43° SSE
ISS -0.7 19:10:07 10° W 19:11:30 22° W 19:11:30 22° W
Meteor 1-19 Rocket 4.3 19:12:53 10° S 19:17:46 66° S 19:17:46 66° S
ATLAS 3B CENTAUR R/B 4.3 19:08:04 10° WSW 19:19:16 27° SSW 19:22:04 22° SSE
Cosmos 2278 Rocket 2.9 19:25:36 10° SW 19:31:04 50° WNW 19:31:58 45° NNW
CZ-3B DEB 3.2 19:26:50 10° WSW 19:31:47 61° NNW 19:34:11 47° NNE
Cosmos 1821 Rocket 4.1 19:33:25 10° NNW 19:45:53 - S 19:39:24 68° W
Cosmos 2082 Rocket 3.4 19:49:19 10° NNW 19:52:45 36° NW 19:52:45 36° NW
Cosmos 1833 Rocket 4.4 19:57:23 10° NNW 19:59:58 27° NW 19:59:58 27° NW
